^^
Station Historical Data
Daily Summary for May 9, 2017 Units:  English    Metric   Both
« Previous Day
Next Day »
Daily Weekly Monthly Yearly Custom
  High: Low: Average:
Temperature: 62.8 °F 37.8 °F 51.5 °F
Dew Point: 36.7 °F 25.7 °F 31.9 °F
Humidity: 79 % 30 % 50 %
Wind Speed: 7.7 mph 0.0 mph 0.9 mph
Wind Gust: 15.0 mph - -
Wind:- - WNW
Pressure: 30.02 in 29.93 in -
Precipitation: 0.00 in    
Historical Graphs
 
 
Tabular Data for May 9, 2017
Time Temperature Dew Point Pressure Wind Wind Speed Wind Gust Humidity Rainfall Rate (Hourly) solar Conditions
00:04 45.8 °F 31.0 °F 29.95 in Calm   3.5 mph 56 % 0.00 in 0.0 W/m2 CLR
00:09 45.7 °F 30.9 °F 29.95 in West 0.3 mph 3.5 mph 56 % 0.00 in 0.0 W/m2 CLR
00:14 45.4 °F 31.0 °F 29.97 in NNE 0.4 mph 3.5 mph 57 % 0.00 in 0.0 W/m2 CLR
00:19 45.6 °F 30.3 °F 29.96 in SW 0.2 mph 4.6 mph 55 % 0.00 in 0.0 W/m2 CLR
00:24 46.5 °F 29.8 °F 29.96 in Calm   4.6 mph 52 % 0.00 in 0.0 W/m2 CLR
00:29 46.5 °F 30.3 °F 29.96 in Calm   3.5 mph 53 % 0.00 in 0.0 W/m2 CLR
00:34 46.2 °F 30.5 °F 29.96 in Calm     54 % 0.00 in 0.0 W/m2 CLR
00:39 46.1 °F 30.4 °F 29.96 in Calm     54 % 0.00 in 0.0 W/m2 CLR
00:44 45.8 °F 30.1 °F 29.96 in Calm     54 % 0.00 in 0.0 W/m2 CLR
00:49 45.6 °F 30.3 °F 29.96 in Calm     55 % 0.00 in 0.0 W/m2 CLR
00:54 45.2 °F 30.9 °F 29.96 in Calm     57 % 0.00 in 0.0 W/m2 CLR
00:59 44.8 °F 30.5 °F 29.96 in Calm     57 % 0.00 in 0.0 W/m2 CLR
01:04 44.4 °F 30.5 °F 29.96 in Calm     58 % 0.00 in 0.0 W/m2 CLR
01:09 44.1 °F 30.7 °F 29.96 in Calm     59 % 0.00 in 0.0 W/m2 CLR
01:14 43.8 °F 30.8 °F 29.96 in Calm     60 % 0.00 in 0.0 W/m2 CLR
01:16 43.8 °F 30.8 °F 29.96 in Calm     60 % 0.00 in 0.0 W/m2 CLR
01:21 43.4 °F 30.8 °F 29.96 in Calm     61 % 0.00 in 0.0 W/m2 CLR
01:26 42.9 °F 30.8 °F 29.96 in Calm     62 % 0.00 in 0.0 W/m2 CLR
01:31 42.8 °F 31.1 °F 29.96 in Calm     63 % 0.00 in 0.0 W/m2 CLR
01:36 42.7 °F 30.6 °F 29.96 in Calm     62 % 0.00 in 0.0 W/m2 CLR
01:41 42.5 °F 30.8 °F 29.96 in Calm     63 % 0.00 in 0.0 W/m2 CLR
01:46 42.3 °F 31.4 °F 29.96 in Calm     65 % 0.00 in 0.0 W/m2 CLR
01:51 42.1 °F 31.2 °F 29.96 in Calm     65 % 0.00 in 0.0 W/m2 CLR
01:56 41.7 °F 31.2 °F 29.95 in Calm     66 % 0.00 in 0.0 W/m2 CLR
02:01 41.2 °F 31.1 °F 29.95 in Calm     67 % 0.00 in 0.0 W/m2 CLR
02:06 40.7 °F 31.0 °F 29.95 in Calm     68 % 0.00 in 0.0 W/m2 CLR
02:11 40.5 °F 31.1 °F 29.95 in Calm     69 % 0.00 in 0.0 W/m2 CLR
02:16 40.3 °F 30.9 °F 29.94 in Calm     69 % 0.00 in 0.0 W/m2 CLR
02:21 40.2 °F 30.8 °F 29.94 in Calm     69 % 0.00 in 0.0 W/m2 CLR
02:26 40.2 °F 31.2 °F 29.94 in Calm     70 % 0.00 in 0.0 W/m2 CLR
02:31 40.1 °F 31.1 °F 29.94 in Calm     70 % 0.00 in 0.0 W/m2 CLR
02:36 40.2 °F 31.5 °F 29.94 in Calm     71 % 0.00 in 0.0 W/m2 CLR
02:41 40.1 °F 31.4 °F 29.94 in Calm     71 % 0.00 in 0.0 W/m2 CLR
02:46 40.0 °F 31.7 °F 29.94 in Calm     72 % 0.00 in 0.0 W/m2 CLR
02:51 39.6 °F 31.7 °F 29.94 in Calm     73 % 0.00 in 0.0 W/m2 CLR
02:56 39.5 °F 31.6 °F 29.94 in Calm     73 % 0.00 in 0.0 W/m2 CLR
03:01 39.4 °F 31.8 °F 29.95 in Calm     74 % 0.00 in 0.0 W/m2 CLR
03:06 39.2 °F 31.9 °F 29.95 in Calm     75 % 0.00 in 0.0 W/m2 CLR
03:11 39.0 °F 32.1 °F 29.95 in Calm     76 % 0.00 in 0.0 W/m2 CLR
03:16 39.1 °F 32.2 °F 29.96 in Calm     76 % 0.00 in 0.0 W/m2 CLR
03:21 39.1 °F 32.2 °F 29.96 in Calm     76 % 0.00 in 0.0 W/m2 CLR
03:26 39.1 °F 32.2 °F 29.96 in Calm     76 % 0.00 in 0.0 W/m2 CLR
03:27 39.0 °F 32.1 °F 29.96 in Calm     76 % 0.00 in 0.0 W/m2 CLR
03:32 39.1 °F 32.2 °F 29.96 in Calm     76 % 0.00 in 0.0 W/m2 CLR
03:37 39.1 °F 32.2 °F 29.97 in Calm     76 % 0.00 in 0.0 W/m2 CLR
03:42 39.0 °F 32.4 °F 29.97 in Calm     77 % 0.00 in 0.0 W/m2 CLR
03:47 38.5 °F 31.9 °F 29.97 in Calm     77 % 0.00 in 0.0 W/m2 CLR
03:52 38.2 °F 31.9 °F 29.97 in Calm     78 % 0.00 in 0.0 W/m2 CLR
03:57 37.8 °F 31.9 °F 29.97 in Calm     79 % 0.00 in 0.0 W/m2 CLR
04:02 37.8 °F 31.9 °F 29.97 in Calm     79 % 0.00 in 0.0 W/m2 CLR
04:07 37.8 °F 31.9 °F 29.98 in Calm     79 % 0.00 in 0.0 W/m2 CLR
04:12 37.9 °F 32.0 °F 29.98 in Calm     79 % 0.00 in 0.0 W/m2 CLR
04:17 37.9 °F 32.0 °F 29.97 in Calm     79 % 0.00 in 0.0 W/m2 CLR
04:22 37.9 °F 32.0 °F 29.97 in Calm     79 % 0.00 in 0.0 W/m2 CLR
04:27 38.0 °F 32.1 °F 29.97 in Calm     79 % 0.00 in 0.0 W/m2 CLR
04:32 38.0 °F 32.1 °F 29.97 in Calm     79 % 0.00 in 0.0 W/m2 CLR
04:37 38.0 °F 32.1 °F 29.97 in Calm     79 % 0.00 in 0.0 W/m2 CLR
04:42 38.2 °F 32.3 °F 29.97 in Calm     79 % 0.00 in 0.0 W/m2 CLR
04:47 38.2 °F 31.9 °F 29.97 in Calm     78 % 0.00 in 0.0 W/m2 CLR
04:52 38.3 °F 32.4 °F 29.97 in Calm     79 % 0.00 in 0.0 W/m2 CLR
04:57 38.6 °F 32.6 °F 29.97 in Calm     79 % 0.00 in 0.0 W/m2 CLR
05:02 38.7 °F 32.4 °F 29.97 in Calm     78 % 0.00 in 0.0 W/m2 FEW
05:07 38.7 °F 32.4 °F 29.97 in Calm     78 % 0.00 in 0.0 W/m2 FEW
05:12 38.8 °F 32.2 °F 29.96 in Calm     77 % 0.00 in 0.0 W/m2 FEW
05:17 39.1 °F 32.5 °F 29.97 in Calm     77 % 0.00 in 0.0 W/m2 FEW
05:22 39.3 °F 32.4 °F 29.97 in Calm     76 % 0.00 in 0.0 W/m2 FEW
05:27 39.4 °F 32.5 °F 29.97 in Calm     76 % 0.00 in 0.0 W/m2 FEW
05:32 39.4 °F 32.1 °F 29.97 in Calm     75 % 0.00 in 0.0 W/m2 FEW
05:37 39.3 °F 32.4 °F 29.97 in Calm     76 % 0.00 in 0.0 W/m2 FEW
05:43 39.0 °F 32.1 °F 29.97 in Calm     76 % 0.00 in 0.0 W/m2 FEW
05:48 38.9 °F 32.0 °F 29.98 in Calm     76 % 0.00 in 0.0 W/m2 FEW
05:53 38.9 °F 32.3 °F 29.98 in Calm     77 % 0.00 in 0.0 W/m2 FEW
05:58 38.7 °F 32.1 °F 29.98 in Calm     77 % 0.00 in 0.0 W/m2 FEW
06:03 38.7 °F 32.1 °F 29.98 in Calm     77 % 0.00 in 5.0 W/m2 CLR
06:08 38.7 °F 32.1 °F 29.98 in Calm     77 % 0.00 in 14.0 W/m2 CLR
06:13 38.8 °F 32.2 °F 29.98 in Calm     77 % 0.00 in 19.0 W/m2 CLR
06:18 39.1 °F 32.5 °F 29.98 in Calm     77 % 0.00 in 23.0 W/m2 CLR
06:23 39.1 °F 32.5 °F 29.99 in Calm     77 % 0.00 in 21.0 W/m2 CLR
06:28 39.0 °F 32.4 °F 29.99 in Calm     77 % 0.00 in 19.0 W/m2 CLR
06:33 39.3 °F 32.4 °F 29.99 in Calm     76 % 0.00 in 18.0 W/m2 CLR
06:38 39.6 °F 32.3 °F 30.00 in Calm     75 % 0.00 in 19.0 W/m2 CLR
06:43 39.7 °F 32.4 °F 30.00 in Calm     75 % 0.00 in 21.0 W/m2 CLR
06:48 39.8 °F 32.5 °F 30.00 in Calm     75 % 0.00 in 21.0 W/m2 CLR
06:53 39.7 °F 32.4 °F 30.00 in Calm     75 % 0.00 in 28.0 W/m2 CLR
06:58 39.7 °F 32.4 °F 30.00 in Calm     75 % 0.00 in 33.0 W/m2 CLR
07:03 40.0 °F 32.4 °F 30.00 in Calm     74 % 0.00 in 39.0 W/m2 CLR
07:08 40.3 °F 32.3 °F 30.00 in Calm     73 % 0.00 in 32.0 W/m2 CLR
07:13 40.7 °F 32.7 °F 30.00 in Calm     73 % 0.00 in 26.0 W/m2 CLR
07:18 41.3 °F 33.0 °F 30.00 in Calm     72 % 0.00 in 26.0 W/m2 CLR
07:23 41.8 °F 33.1 °F 30.00 in Calm     71 % 0.00 in 28.0 W/m2 CLR
07:28 42.5 °F 33.0 °F 30.00 in Calm   2.3 mph 69 % 0.00 in 28.0 W/m2 CLR
07:33 43.1 °F 33.3 °F 30.00 in WSW 0.2 mph 3.5 mph 68 % 0.00 in 32.0 W/m2 CLR
07:38 43.5 °F 33.3 °F 30.00 in West 2.5 mph 3.5 mph 67 % 0.00 in 32.0 W/m2 CLR
07:43 43.8 °F 32.8 °F 30.00 in West 1.4 mph 3.5 mph 65 % 0.00 in 33.0 W/m2 CLR
07:48 44.0 °F 33.0 °F 30.00 in West 0.5 mph 5.8 mph 65 % 0.00 in 32.0 W/m2 CLR
07:51 44.1 °F 32.7 °F 30.00 in WSW 0.4 mph 5.8 mph 64 % 0.00 in 37.0 W/m2 CLR
07:56 44.5 °F 32.7 °F 30.00 in SW 1.8 mph 4.6 mph 63 % 0.00 in 33.0 W/m2 CLR
08:01 44.9 °F 33.1 °F 30.01 in SW 1.0 mph 3.5 mph 63 % 0.00 in 33.0 W/m2 CLR
08:06 45.4 °F 33.1 °F 30.01 in Calm   4.6 mph 62 % 0.00 in 35.0 W/m2 CLR
08:11 46.0 °F 32.9 °F 30.01 in WSW 1.6 mph 4.6 mph 60 % 0.00 in 35.0 W/m2 CLR
08:16 46.1 °F 33.0 °F 30.02 in West 0.8 mph 3.5 mph 60 % 0.00 in 37.0 W/m2 CLR
08:21 47.1 °F 32.6 °F 30.02 in NNW 3.2 mph 10.4 mph 57 % 0.00 in 37.0 W/m2 CLR
08:26 47.9 °F 31.6 °F 30.02 in West 2.6 mph 10.4 mph 53 % 0.00 in 39.0 W/m2 CLR
08:31 48.4 °F 31.6 °F 30.01 in NW 2.9 mph 10.4 mph 52 % 0.00 in 39.0 W/m2 CLR
08:36 48.8 °F 31.9 °F 30.02 in NW 0.2 mph 10.4 mph 52 % 0.00 in 40.0 W/m2 CLR
08:37 48.8 °F 32.4 °F 30.02 in NW 1.5 mph 10.4 mph 53 % 0.00 in 42.0 W/m2 CLR
08:42 49.4 °F 31.0 °F 30.02 in NW 5.4 mph 13.8 mph 49 % 0.00 in 42.0 W/m2 CLR
08:47 49.7 °F 30.3 °F 30.02 in NNW 2.3 mph 13.8 mph 47 % 0.00 in 49.0 W/m2 CLR
08:52 49.8 °F 30.9 °F 30.02 in NW 4.7 mph 12.7 mph 48 % 0.00 in 557.0 W/m2 CLR
08:57 50.1 °F 29.0 °F 30.02 in NW 3.9 mph 12.7 mph 44 % 0.00 in 158.0 W/m2 CLR
09:02 50.6 °F 28.9 °F 30.02 in NW 3.6 mph 12.7 mph 43 % 0.00 in 592.0 W/m2 CLR
09:07 50.7 °F 27.8 °F 30.02 in NW 7.7 mph 12.7 mph 41 % 0.00 in 606.0 W/m2 CLR
09:12 51.0 °F 27.5 °F 30.02 in NW 2.6 mph 12.7 mph 40 % 0.00 in 628.0 W/m2 CLR
09:17 51.7 °F 29.3 °F 30.02 in WNW 1.8 mph 12.7 mph 42 % 0.00 in 640.0 W/m2 CLR
09:22 52.0 °F 29.0 °F 30.02 in NNW 7.7 mph 12.7 mph 41 % 0.00 in 656.0 W/m2 CLR
09:27 52.0 °F 29.0 °F 30.02 in NW 2.9 mph 10.4 mph 41 % 0.00 in 670.0 W/m2 CLR
09:32 52.3 °F 28.1 °F 30.02 in WNW 3.5 mph 10.4 mph 39 % 0.00 in 686.0 W/m2 CLR
09:37 51.8 °F 25.7 °F 30.02 in NW 2.0 mph 9.2 mph 36 % 0.00 in 701.0 W/m2 CLR
09:42 51.4 °F 26.0 °F 30.02 in WNW 3.6 mph 11.5 mph 37 % 0.00 in 714.0 W/m2 CLR
09:47 51.8 °F 26.3 °F 30.02 in NW 2.7 mph 11.5 mph 37 % 0.00 in 729.0 W/m2 CLR
09:53 52.9 °F 26.6 °F 30.02 in NW 5.6 mph 11.5 mph 36 % 0.00 in 744.0 W/m2 CLR
09:58 53.1 °F 28.8 °F 30.02 in West 1.3 mph 11.5 mph 39 % 0.00 in 756.0 W/m2 CLR
10:03 52.8 °F 26.6 °F 30.01 in West 2.2 mph 12.7 mph 36 % 0.00 in 770.0 W/m2 CLR
10:08 53.4 °F 28.4 °F 30.02 in WNW 1.5 mph 15.0 mph 38 % 0.00 in 786.0 W/m2 CLR
10:13 53.5 °F 27.8 °F 30.02 in West 4.0 mph 15.0 mph 37 % 0.00 in 810.0 W/m2 CLR
10:18 53.4 °F 27.8 °F 30.01 in West 2.1 mph 11.5 mph 37 % 0.00 in 814.0 W/m2 CLR
10:23 53.7 °F 28.7 °F 30.01 in NW 5.0 mph 11.5 mph 38 % 0.00 in 844.0 W/m2 CLR
10:28 54.1 °F 27.7 °F 30.01 in NW 2.5 mph 11.5 mph 36 % 0.00 in 838.0 W/m2 CLR
10:33 53.8 °F 28.8 °F 30.01 in NW 3.5 mph 12.7 mph 38 % 0.00 in 851.0 W/m2 CLR
10:38 53.7 °F 29.3 °F 30.00 in NW 6.0 mph 12.7 mph 39 % 0.00 in 854.0 W/m2 CLR
10:43 53.7 °F 28.7 °F 30.00 in West 1.3 mph 13.8 mph 38 % 0.00 in 800.0 W/m2 CLR
10:45 53.6 °F 29.2 °F 30.00 in WNW 4.9 mph 13.8 mph 39 % 0.00 in 853.0 W/m2 CLR
10:50 54.8 °F 29.0 °F 30.00 in West 2.3 mph 13.8 mph 37 % 0.00 in 613.0 W/m2 CLR
10:55 53.8 °F 28.1 °F 30.00 in NW 6.2 mph 11.5 mph 37 % 0.00 in 861.0 W/m2 CLR
11:00 54.0 °F 28.3 °F 30.00 in West 4.6 mph 12.7 mph 37 % 0.00 in 898.0 W/m2 CLR
11:05 55.0 °F 28.5 °F 30.00 in West 2.7 mph 12.7 mph 36 % 0.00 in 916.0 W/m2 BKN
11:10 55.5 °F 28.3 °F 30.00 in WNW 1.8 mph 15.0 mph 35 % 0.00 in 907.0 W/m2 BKN
11:15 55.3 °F 28.8 °F 30.00 in NNW 2.4 mph 15.0 mph 36 % 0.00 in 891.0 W/m2 BKN
11:20 55.5 °F 28.3 °F 30.00 in West 2.5 mph 10.4 mph 35 % 0.00 in 896.0 W/m2 BKN
11:25 55.1 °F 28.6 °F 30.00 in SW 2.2 mph 10.4 mph 36 % 0.00 in 956.0 W/m2 BKN
11:30 55.4 °F 28.2 °F 30.00 in WNW 1.2 mph 8.1 mph 35 % 0.00 in 949.0 W/m2 BKN
11:35 56.3 °F 31.0 °F 29.99 in NNW 0.4 mph 8.1 mph 38 % 0.00 in 962.0 W/m2 BKN
11:40 56.4 °F 27.6 °F 30.00 in West 0.1 mph 15.0 mph 33 % 0.00 in 977.0 W/m2 BKN
11:45 56.0 °F 28.0 °F 29.99 in Calm   15.0 mph 34 % 0.00 in 965.0 W/m2 BKN
11:50 55.8 °F 28.5 °F 29.99 in NW 0.3 mph 11.5 mph 35 % 0.00 in 974.0 W/m2 BKN
11:55 55.6 °F 28.4 °F 29.99 in WSW 2.0 mph 11.5 mph 35 % 0.00 in 979.0 W/m2 BKN
12:00 57.1 °F 29.7 °F 29.99 in NW 2.6 mph 13.8 mph 35 % 0.00 in 981.0 W/m2 BKN
12:05 57.7 °F 29.5 °F 29.99 in NNW 2.2 mph 13.8 mph 34 % 0.00 in 988.0 W/m2 CLR
12:10 57.4 °F 28.5 °F 29.99 in WNW 2.8 mph 9.2 mph 33 % 0.00 in 995.0 W/m2 CLR
12:15 57.5 °F 28.6 °F 29.99 in West 3.8 mph 13.8 mph 33 % 0.00 in 988.0 W/m2 CLR
12:21 56.4 °F 28.3 °F 29.99 in WSW 1.6 mph 13.8 mph 34 % 0.00 in 991.0 W/m2 CLR
12:26 55.5 °F 29.6 °F 29.98 in Calm   10.4 mph 37 % 0.00 in 995.0 W/m2 CLR
12:31 56.6 °F 29.9 °F 29.99 in WSW 3.7 mph 6.9 mph 36 % 0.00 in 1014.0 W/m2 CLR
12:36 58.1 °F 30.6 °F 29.99 in WNW 1.4 mph 11.5 mph 35 % 0.00 in 1079.0 W/m2 CLR
12:41 58.2 °F 30.7 °F 29.99 in WNW 6.7 mph 13.8 mph 35 % 0.00 in 1011.0 W/m2 CLR
12:46 58.2 °F 30.7 °F 29.99 in NNW 0.3 mph 13.8 mph 35 % 0.00 in 1016.0 W/m2 CLR
12:51 57.3 °F 31.9 °F 29.99 in Calm   13.8 mph 38 % 0.00 in 1053.0 W/m2 CLR
12:56 57.7 °F 32.9 °F 29.99 in Calm   3.5 mph 39 % 0.00 in 1148.0 W/m2 CLR
13:01 57.4 °F 29.9 °F 29.99 in NW 2.1 mph 4.6 mph 35 % 0.00 in 258.0 W/m2 CLR
13:06 56.7 °F 31.4 °F 29.98 in NNE 0.6 mph 9.2 mph 38 % 0.00 in 388.0 W/m2 CLR
13:11 57.8 °F 33.0 °F 29.99 in Calm   9.2 mph 39 % 0.00 in 1046.0 W/m2 CLR
13:16 58.2 °F 31.3 °F 29.98 in NW 2.0 mph 8.1 mph 36 % 0.00 in 1187.0 W/m2 CLR
13:21 58.8 °F 33.2 °F 29.98 in NNW 7.7 mph 11.5 mph 38 % 0.00 in 1187.0 W/m2 CLR
13:26 58.5 °F 31.6 °F 29.98 in WNW 1.4 mph 13.8 mph 36 % 0.00 in 1097.0 W/m2 CLR
13:31 59.3 °F 33.0 °F 29.98 in NNW 5.5 mph 13.8 mph 37 % 0.00 in 1065.0 W/m2 CLR
13:36 60.1 °F 31.6 °F 29.98 in West 3.5 mph 13.8 mph 34 % 0.00 in 1037.0 W/m2 CLR
13:41 58.6 °F 30.3 °F 29.98 in West 2.4 mph 11.5 mph 34 % 0.00 in 956.0 W/m2 CLR
13:46 59.0 °F 31.4 °F 29.98 in WNW 1.6 mph 11.5 mph 35 % 0.00 in 988.0 W/m2 CLR
13:51 60.3 °F 32.5 °F 29.97 in NW 1.4 mph 11.5 mph 35 % 0.00 in 1028.0 W/m2 CLR
13:56 60.7 °F 32.1 °F 29.97 in NW 0.6 mph 11.5 mph 34 % 0.00 in 986.0 W/m2 CLR
14:01 58.9 °F 32.0 °F 29.97 in NNW 3.7 mph 11.5 mph 36 % 0.00 in 1014.0 W/m2 SCT
14:06 60.1 °F 33.0 °F 29.97 in NW 2.7 mph 12.7 mph 36 % 0.00 in 1023.0 W/m2 SCT
14:11 59.9 °F 32.2 °F 29.97 in Calm   12.7 mph 35 % 0.00 in 172.0 W/m2 SCT
14:16 59.6 °F 33.9 °F 29.97 in West 5.3 mph 5.8 mph 38 % 0.00 in 984.0 W/m2 SCT
14:21 60.3 °F 31.8 °F 29.97 in NNW 4.4 mph 11.5 mph 34 % 0.00 in 972.0 W/m2 SCT
14:26 60.5 °F 32.7 °F 29.96 in NW 0.6 mph 11.5 mph 35 % 0.00 in 997.0 W/m2 SCT
14:32 60.6 °F 33.5 °F 29.96 in NW 2.9 mph 11.5 mph 36 % 0.00 in 998.0 W/m2 SCT
14:37 60.2 °F 32.4 °F 29.96 in North 1.6 mph 4.6 mph 35 % 0.00 in 1025.0 W/m2 SCT
14:42 59.7 °F 32.7 °F 29.96 in NNE 0.8 mph 10.4 mph 36 % 0.00 in 213.0 W/m2 SCT
14:47 58.7 °F 32.5 °F 29.96 in Calm   10.4 mph 37 % 0.00 in 162.0 W/m2 SCT
14:52 58.5 °F 32.3 °F 29.96 in Calm   5.8 mph 37 % 0.00 in 990.0 W/m2 SCT
14:57 60.0 °F 31.5 °F 29.96 in WNW 0.5 mph 10.4 mph 34 % 0.00 in 998.0 W/m2 SCT
15:02 60.2 °F 33.8 °F 29.96 in NW 0.8 mph 10.4 mph 37 % 0.00 in 274.0 W/m2 SCT
15:07 60.3 °F 33.2 °F 29.96 in Calm   8.1 mph 36 % 0.00 in 865.0 W/m2 SCT
15:12 60.3 °F 31.8 °F 29.95 in NNW 1.9 mph 5.8 mph 34 % 0.00 in 257.0 W/m2 SCT
15:17 60.4 °F 33.3 °F 29.95 in NNW 4.8 mph 11.5 mph 36 % 0.00 in 986.0 W/m2 SCT
15:22 60.7 °F 32.1 °F 29.94 in NE 0.1 mph 11.5 mph 34 % 0.00 in 865.0 W/m2 SCT
15:27 60.7 °F 33.6 °F 29.95 in West 0.7 mph 11.5 mph 36 % 0.00 in 951.0 W/m2 SCT
15:32 61.1 °F 31.0 °F 29.95 in WSW 3.2 mph 8.1 mph 32 % 0.00 in 856.0 W/m2 SCT
15:37 61.1 °F 30.2 °F 29.94 in Calm   9.2 mph 31 % 0.00 in 935.0 W/m2 SCT
15:42 60.9 °F 33.0 °F 29.94 in Calm   9.2 mph 35 % 0.00 in 919.0 W/m2 SCT
15:47 61.9 °F 33.2 °F 29.94 in NNW 5.8 mph 11.5 mph 34 % 0.00 in 545.0 W/m2 SCT
15:52 61.2 °F 31.8 °F 29.94 in NNW 1.3 mph 11.5 mph 33 % 0.00 in 156.0 W/m2 SCT
15:57 59.9 °F 31.4 °F 29.94 in WNW 0.2 mph 11.5 mph 34 % 0.00 in 272.0 W/m2 SCT
15:58 59.9 °F 31.4 °F 29.94 in West 0.6 mph 11.5 mph 34 % 0.00 in 272.0 W/m2 SCT
16:03 61.3 °F 33.4 °F 29.94 in North 1.3 mph 5.8 mph 35 % 0.00 in 775.0 W/m2 FEW
16:08 61.5 °F 32.1 °F 29.94 in SSW 3.8 mph 5.8 mph 33 % 0.00 in 789.0 W/m2 FEW
16:13 62.1 °F 32.6 °F 29.94 in SW 0.6 mph 5.8 mph 33 % 0.00 in 835.0 W/m2 FEW
16:18 61.8 °F 31.6 °F 29.94 in West 1.4 mph 6.9 mph 32 % 0.00 in 193.0 W/m2 FEW
16:23 60.8 °F 31.5 °F 29.93 in NW 1.5 mph 6.9 mph 33 % 0.00 in 183.0 W/m2 FEW
16:28 60.1 °F 32.3 °F 29.93 in Calm   5.8 mph 35 % 0.00 in 221.0 W/m2 FEW
16:33 61.3 °F 32.7 °F 29.93 in WNW 0.8 mph 5.8 mph 34 % 0.00 in 693.0 W/m2 FEW
16:38 62.1 °F 31.1 °F 29.93 in Calm   3.5 mph 31 % 0.00 in 788.0 W/m2 FEW
16:43 61.4 °F 32.8 °F 29.93 in Calm   3.5 mph 34 % 0.00 in 749.0 W/m2 FEW
16:48 61.3 °F 34.1 °F 29.94 in West 0.5 mph 3.5 mph 36 % 0.00 in 404.0 W/m2 FEW
16:53 61.4 °F 31.3 °F 29.94 in West 1.7 mph 8.1 mph 32 % 0.00 in 343.0 W/m2 FEW
16:58 61.6 °F 32.2 °F 29.95 in WNW 4.1 mph 10.4 mph 33 % 0.00 in 192.0 W/m2 FEW
17:03 61.1 °F 31.0 °F 29.94 in SSW 0.1 mph 10.4 mph 32 % 0.00 in 652.0 W/m2 SCT
17:08 61.7 °F 31.5 °F 29.94 in West 0.4 mph 10.4 mph 32 % 0.00 in 621.0 W/m2 SCT
17:13 62.5 °F 31.4 °F 29.94 in WNW 1.6 mph 4.6 mph 31 % 0.00 in 628.0 W/m2 SCT
17:18 62.4 °F 31.3 °F 29.94 in North 0.4 mph 8.1 mph 31 % 0.00 in 406.0 W/m2 SCT
17:23 62.7 °F 31.6 °F 29.94 in Calm   9.2 mph 31 % 0.00 in 548.0 W/m2 SCT
17:28 62.5 °F 30.6 °F 29.94 in NW 3.2 mph 11.5 mph 30 % 0.00 in 504.0 W/m2 SCT
17:33 62.6 °F 31.5 °F 29.94 in NW 2.9 mph 11.5 mph 31 % 0.00 in 480.0 W/m2 SCT
17:38 62.8 °F 31.7 °F 29.94 in WNW 2.4 mph 10.4 mph 31 % 0.00 in 445.0 W/m2 SCT
17:43 62.4 °F 32.9 °F 29.93 in WNW 0.5 mph 10.4 mph 33 % 0.00 in 390.0 W/m2 SCT
17:48 62.3 °F 31.3 °F 29.93 in NW 0.2 mph 9.2 mph 31 % 0.00 in 325.0 W/m2 SCT
17:53 62.1 °F 31.1 °F 29.93 in NW 0.8 mph 9.2 mph 31 % 0.00 in 378.0 W/m2 SCT
17:58 62.1 °F 30.3 °F 29.93 in Calm   3.5 mph 30 % 0.00 in 408.0 W/m2 SCT
18:03 61.6 °F 30.6 °F 29.93 in Calm   3.5 mph 31 % 0.00 in 202.0 W/m2 SCT
18:08 61.9 °F 30.9 °F 29.93 in WNW 2.0 mph 6.9 mph 31 % 0.00 in 330.0 W/m2 SCT
18:13 61.8 °F 31.6 °F 29.93 in Calm   6.9 mph 32 % 0.00 in 243.0 W/m2 SCT
18:18 61.1 °F 30.2 °F 29.93 in Calm   6.9 mph 31 % 0.00 in 162.0 W/m2 SCT
18:23 61.3 °F 31.2 °F 29.93 in Calm   2.3 mph 32 % 0.00 in 123.0 W/m2 SCT
18:28 61.1 °F 30.2 °F 29.93 in Calm     31 % 0.00 in 123.0 W/m2 SCT
18:33 61.1 °F 30.2 °F 29.93 in Calm     31 % 0.00 in 171.0 W/m2 SCT
18:38 60.6 °F 29.8 °F 29.93 in Calm     31 % 0.00 in 105.0 W/m2 SCT
18:43 61.0 °F 31.7 °F 29.94 in NW 1.7 mph 3.5 mph 33 % 0.00 in 127.0 W/m2 SCT
18:48 61.0 °F 30.9 °F 29.94 in Calm   3.5 mph 32 % 0.00 in 171.0 W/m2 SCT
18:53 61.0 °F 30.9 °F 29.94 in WNW 1.5 mph 3.5 mph 32 % 0.00 in 200.0 W/m2 SCT
18:58 61.2 °F 31.1 °F 29.94 in Calm   5.8 mph 32 % 0.00 in 113.0 W/m2 SCT
19:03 61.0 °F 30.1 °F 29.94 in Calm   5.8 mph 31 % 0.00 in 83.0 W/m2 FEW
19:08 60.8 °F 30.7 °F 29.94 in Calm   2.3 mph 32 % 0.00 in 77.0 W/m2 FEW
19:13 60.6 °F 31.3 °F 29.94 in Calm   2.3 mph 33 % 0.00 in 67.0 W/m2 FEW
19:18 60.5 °F 31.2 °F 29.94 in Calm     33 % 0.00 in 58.0 W/m2 FEW
19:23 60.3 °F 31.0 °F 29.95 in WSW 0.8 mph 3.5 mph 33 % 0.00 in 51.0 W/m2 FEW
19:28 60.2 °F 31.7 °F 29.95 in Calm   3.5 mph 34 % 0.00 in 40.0 W/m2 FEW
19:34 60.0 °F 31.5 °F 29.95 in Calm   2.3 mph 34 % 0.00 in 33.0 W/m2 FEW
19:39 60.1 °F 31.6 °F 29.95 in Calm     34 % 0.00 in 26.0 W/m2 FEW
19:44 59.9 °F 31.4 °F 29.95 in Calm     34 % 0.00 in 23.0 W/m2 FEW
19:49 59.8 °F 32.1 °F 29.95 in Calm     35 % 0.00 in 16.0 W/m2 FEW
19:54 59.7 °F 32.0 °F 29.95 in Calm     35 % 0.00 in 11.0 W/m2 FEW
19:59 59.4 °F 33.1 °F 29.95 in Calm     37 % 0.00 in 7.0 W/m2 FEW
20:04 58.6 °F 32.4 °F 29.95 in Calm     37 % 0.00 in 5.0 W/m2 SCT
20:09 58.7 °F 32.5 °F 29.95 in Calm     37 % 0.00 in 0.0 W/m2 SCT
20:14 58.5 °F 33.0 °F 29.95 in Calm     38 % 0.00 in 0.0 W/m2 SCT
20:19 58.0 °F 33.8 °F 29.96 in Calm     40 % 0.00 in 0.0 W/m2 SCT
20:24 57.7 °F 34.7 °F 29.96 in Calm     42 % 0.00 in 0.0 W/m2 SCT
20:29 57.2 °F 34.9 °F 29.96 in Calm     43 % 0.00 in 0.0 W/m2 SCT
20:34 57.0 °F 35.3 °F 29.96 in Calm     44 % 0.00 in 0.0 W/m2 SCT
20:39 56.7 °F 35.0 °F 29.96 in Calm     44 % 0.00 in 0.0 W/m2 SCT
20:44 56.4 °F 35.9 °F 29.96 in Calm     46 % 0.00 in 0.0 W/m2 SCT
20:49 56.0 °F 36.0 °F 29.96 in Calm     47 % 0.00 in 0.0 W/m2 SCT
20:54 55.9 °F 35.9 °F 29.96 in Calm     47 % 0.00 in 0.0 W/m2 SCT
20:59 55.8 °F 36.4 °F 29.96 in Calm     48 % 0.00 in 0.0 W/m2 SCT
21:04 55.7 °F 35.8 °F 29.96 in Calm     47 % 0.00 in 0.0 W/m2 OVC
21:05 55.7 °F 35.8 °F 29.96 in Calm     47 % 0.00 in 0.0 W/m2 OVC
21:10 56.0 °F 36.6 °F 29.96 in Calm     48 % 0.00 in 0.0 W/m2 OVC
21:15 55.5 °F 36.6 °F 29.96 in Calm     49 % 0.00 in 0.0 W/m2 OVC
21:20 54.9 °F 36.6 °F 29.96 in Calm     50 % 0.00 in 0.0 W/m2 OVC
21:25 54.9 °F 36.6 °F 29.96 in Calm     50 % 0.00 in 0.0 W/m2 OVC
21:30 54.8 °F 36.0 °F 29.96 in Calm     49 % 0.00 in 0.0 W/m2 OVC
21:35 54.8 °F 36.0 °F 29.96 in Calm     49 % 0.00 in 0.0 W/m2 OVC
21:40 54.8 °F 36.0 °F 29.97 in Calm     49 % 0.00 in 0.0 W/m2 OVC
21:45 54.7 °F 36.4 °F 29.97 in Calm     50 % 0.00 in 0.0 W/m2 OVC
21:50 54.4 °F 36.6 °F 29.97 in Calm     51 % 0.00 in 0.0 W/m2 OVC
21:55 54.4 °F 36.6 °F 29.97 in Calm     51 % 0.00 in 0.0 W/m2 OVC
22:00 54.6 °F 36.3 °F 29.97 in Calm     50 % 0.00 in 0.0 W/m2 OVC
22:05 54.5 °F 36.7 °F 29.97 in Calm     51 % 0.00 in 0.0 W/m2 OVC
22:10 54.5 °F 36.7 °F 29.97 in Calm   1.2 mph 51 % 0.00 in 0.0 W/m2 OVC
22:15 54.9 °F 36.1 °F 29.97 in Calm   1.2 mph 49 % 0.00 in 0.0 W/m2 OVC
22:20 54.7 °F 35.4 °F 29.97 in Calm     48 % 0.00 in 0.0 W/m2 OVC
22:25 54.4 °F 35.1 °F 29.97 in Calm     48 % 0.00 in 0.0 W/m2 OVC
22:30 54.2 °F 35.9 °F 29.97 in Calm     50 % 0.00 in 0.0 W/m2 OVC
22:35 54.0 °F 35.8 °F 29.97 in Calm     50 % 0.00 in 0.0 W/m2 OVC
22:40 53.7 °F 36.0 °F 29.97 in Calm     51 % 0.00 in 0.0 W/m2 OVC
22:45 53.5 °F 35.8 °F 29.97 in Calm     51 % 0.00 in 0.0 W/m2 OVC
22:50 53.4 °F 35.7 °F 29.97 in Calm     51 % 0.00 in 0.0 W/m2 OVC
22:55 53.3 °F 36.1 °F 29.97 in Calm     52 % 0.00 in 0.0 W/m2 OVC
23:00 53.4 °F 35.7 °F 29.97 in Calm     51 % 0.00 in 0.0 W/m2 OVC
23:05 53.6 °F 35.4 °F 29.97 in Calm     50 % 0.00 in 0.0 W/m2 CLR
23:10 53.7 °F 35.0 °F 29.97 in Calm     49 % 0.00 in 0.0 W/m2 CLR
23:16 53.7 °F 35.0 °F 29.97 in Calm     49 % 0.00 in 0.0 W/m2 CLR
23:21 53.8 °F 35.1 °F 29.97 in Calm     49 % 0.00 in 0.0 W/m2 CLR
23:26 53.7 °F 35.0 °F 29.97 in Calm     49 % 0.00 in 0.0 W/m2 CLR
23:31 53.7 °F 35.0 °F 29.97 in Calm     49 % 0.00 in 0.0 W/m2 CLR
23:36 53.7 °F 34.5 °F 29.97 in Calm     48 % 0.00 in 0.0 W/m2 CLR
23:41 53.6 °F 34.4 °F 29.97 in Calm     48 % 0.00 in 0.0 W/m2 CLR
23:46 53.5 °F 34.3 °F 29.98 in Calm     48 % 0.00 in 0.0 W/m2 CLR
23:51 53.5 °F 34.3 °F 29.98 in Calm     48 % 0.00 in 0.0 W/m2 CLR
23:56 53.4 °F 34.2 °F 29.98 in Calm     48 % 0.00 in 0.0 W/m2 CLR
Air Products Campus Weather
Compliments of Weather Underground - 3.5 mb